Location: Albany
(35.0000°S, 118.0000°E)
Time: 09:23:21
(UTC-04:00)

ADEOS Rocket - Visible Passes

Search period start: 01 November 2014 00:00
Search period end: 10 November 2014 23:00
Orbit: 859 x 1307 km, 98.7° (Epoch: 31 October)

Date Brightness Start Highest point End Pass type
(mag) Time Alt. Az. Time Alt. Az. Time Alt. Az.
01 Nov 3.6 08:47:05 10° SSE 08:53:32 46° E 08:53:44 46° ENE visible
01 Nov 4.8 10:33:08 10° S 10:38:45 30° WSW 10:40:43 26° W visible
02 Nov 4.6 06:59:48 10° SE 07:04:28 19° E 07:04:28 19° E visible
02 Nov 3.5 08:43:30 10° S 08:50:11 69° WSW 08:51:27 58° NW visible
02 Nov 5.8 10:34:08 10° SW 10:34:40 10° WSW 10:35:12 10° WSW visible
03 Nov 3.4 07:54:43 10° SSE 08:01:24 54° E 08:02:10 52° ENE visible
03 Nov 5.0 09:41:07 10° SSW 09:46:30 26° WSW 09:49:09 21° W visible
04 Nov 4.4 07:07:04 10° SE 07:12:23 23° E 07:12:54 23° E visible
04 Nov 3.8 08:51:19 10° S 08:58:00 60° WSW 08:59:52 47° WNW visible
05 Nov 3.4 08:02:23 10° SSE 08:09:16 63° ENE 08:10:36 54° NE visible
05 Nov 5.2 09:49:09 10° SSW 09:54:15 23° WSW 09:57:35 17° W visible
06 Nov 4.3 07:14:28 10° SE 07:20:17 27° E 07:21:19 26° ENE visible
06 Nov 4.0 08:59:10 10° S 09:05:49 52° WSW 09:08:18 38° WNW visible
07 Nov 3.3 08:10:06 10° SSE 08:17:07 73° ENE 08:19:01 53° NNE visible
07 Nov 5.4 09:57:14 10° SSW 10:01:59 20° WSW 10:06:00 13° W visible
08 Nov 4.1 07:21:57 10° SE 07:28:12 32° E 07:29:45 30° ENE visible
08 Nov 4.3 09:07:02 10° S 09:13:37 45° WSW 09:16:43 30° WNW visible
09 Nov 5.0 06:36:06 10° ESE 06:38:57 12° E 06:40:28 12° ENE visible
09 Nov 3.3 08:17:51 10° SSE 08:24:59 84° ENE 08:27:27 48° N visible
09 Nov 5.6 10:05:25 10° SSW 10:09:42 17° WSW 10:14:11 10° W visible
10 Nov 4.0 07:29:30 10° SSE 07:36:06 38° E 07:38:10 32° NE visible
10 Nov 4.5 09:14:57 10° S 09:21:25 39° WSW 09:25:08 25° WNW visible
